Location: B?dargowo
(53.3916°N, 14.4413°E)
Time: 05:15:34
(UTC+00:00)

Resurs 1-3 - Pass Details

Date: 05 February 2023
Orbit: 627 x 629 km, 97.8° (Epoch: 24 March)

Event Time Altitude Azimuth Distance (km) Brightness Sun altitude
Exits shadow 19:00:25 51° 309° (NW) 804 4.3 -28.1°
Drops below altitude 10° 19:03:56 10° 340° (NNW) 2,025 6.5 -28.6°
Sets 19:06:10 0° 344° (NNW) 2,937 7.4 -28.9°
